User: anonymous   Login
Location: Koslow
(50.3020°N, 18.5663°E)
Time: 13:44:04
(UTC+00:00)
Language:

STARLINK-48 - Orbit

View from above orbital plane
View from above orbital plane
View from above satellite
View from above satellite

Ground track
Ground track

The orbit data is extracted from the following two-line orbital elements,

1 44289U 19029BG  20218.91667824 -.00032009 +00000-0 -14496-2 0  9996
2 44289 053.0046 316.4240 0001459 064.7549 020.4138 15.20225599001763
Epoch (UTC): 05 August 2020 22:00:01
Eccentricity: 0.0001459
inclination: 53.0046°
perigee height: 504 km
apogee height: 506 km
right ascension of ascending node: 316.4240°
argument of perigee: 64.7549°
revolutions per day: 15.20225599
mean anomaly at epoch: 20.4138°
orbit number at epoch: 176

The dashed part of the orbit path shows where the satellite is in the earth's shadow,  

DLR